DECAYED

ELECTRON R/B, 65118 (Decayed)

Orbit data source: Space-Track

ELECTRON R/B, 65118 was space debris in LEO originally from a launch on Tue, 05 Aug 2025 UTC launched from the Rocket Lab Launch Complex (RLLC). Debris objects in space refer to the collection of defunct objects orbiting the Earth. Examples of debris include non-operational satellites, rocket bodies, and fragments generated from explosions, collisions, or faulty payload assembly.

Not visible in the next 10 days
Identifier
65118, 2025-169C
Orbit
Decayed
Country
Flag of USUS
Related business
Manufacturer
Rocket Lab
Mission
Decayed spacecraft
Bus & Motor
ELECTRON ST2, Unknown motor
Mass
250 kg wet, ~250 kg dry
Launch date (UTC)
2025-08-05 (10 months ago)
Launch vehicle
Unknown
Launch site
Rocket Lab Launch Complex (RLLC)
Object type
Payload
Rocket body
Debris
Shape & HBR
Cyl, 8.0 m
Radar Cross Section
2.827 m², Large (>1 m²)

Expand to show TLE details & history
Last TLE update: 9 months ago

TLE from 9 months ago
0 ELECTRON R/B
1 65118U 25169C   25248.05570646  .06901951  81467-5  13887-2 0  9999
2 65118  42.0018 120.3377 0051070 124.0548 236.5186 16.26280077  4877
Epoch: 2025-09-05T01:20Z
TLE epoch observation values (Epoch: 2025-09-05T01:20:13.038Z)
Latitude
-0.00003°
Longitude
115.87396°
Altitude
220.862 km
Speed
7.765 km/s
True Right ascension
08h 01m 21s
True Declination
0° 00' 00"
Sunlit
Object was in daylight at epoch
Visualization orbit readout
Latitude
Unknown
Longitude
Unknown
Altitude
Unknown
Speed
Unknown
Apparent Right ascension
Unknown
Apparent Declination
Unknown
Sunlit
N/A
Visualization observer readout
Local Sidereal Time
08:41:42
Azimuth
Unknown
Elevation
Unknown
Doppler factor
Unknown
Orbital elements
Apogee altitude
238.377 km
Perigee altitude
171.139 km
Semi-major axis
6,582.895 km
Eccentricity
0.00511
Inclination
42.0018°
RAAN
120.3377°
Arg. of periapsis
124.0548°
True anomaly
236.03221°
Mean anomaly
236.5186°
Eccentric anomaly
236.27523°
Mean motion
4.06366 °/min
Orbital period
88.59 mins
BSTAR
0.0013887
Loading maneuver chart data...
Computing Atmospheric mass density...
Loading historical data...
Loading historical data...
Loading historical data...
Loading historical data...
Loading historical data...
Loading historical data...
Loading historical data...
Other satellites on launch #169 in the year 2025 (2025-08-05 UTC)

Documentation

Showing up to 5 results
|